Back to catalog

IUS DEB

AliveHEO
NORAD 43364·DEBRIS·🇺🇸 United States

Launched Jul 23, 1999 from Cape Canaveral Space Force Station

Loading…

Next Passes (next 24 hours)

TLE

FreshSource: Space-Track

Epoch: Sep 14, 2026, 02:35 UTC

1 43364U 99040M   26257.10801367  .00001638  00000-0  95338-2 0  9998
2 43364  28.0997 207.3069 3783170 109.5337 294.5800  7.03429649145272

Track IUS DEB in real time with AllMySat

Download on the App Store